星链-33651 (STARLINK-33651)

导读 | 豆包AI

STARLINK-33651是美国SpaceX公司星链(Starlink)项目的一颗低地球轨道通信卫星,于2025年4月14日由猎鹰9号火箭从美国佛罗里达州卡纳维拉尔角空军基地发射,隶属星链Group 6-73批次任务,一同入轨的共27颗星链卫星。作为第二代星链V2 Mini卫星,它支持手机直连功能,配备激光星间链路,旨在为全球提供低延迟高速宽带互联网服务,助力星链完成全球覆盖阶段的星座扩张。

基本信息
目录编号:
63588
目录名称:
STARLINK-33651
国际标识:
2025-076V
轨道中心:
EARTH
卫星名称:
星链-33651
卫星全名:
星链-33651 (STARLINK-33651)
卫星状态:
在轨 (已飞行380 天)
发射日期:
2025-04-14 UTC
国别 :
美国 (US)
星等 :
--
轨道信息
数据来源 国际轨道数据
星历时间: 2026-04-29T12:33:50+0800
15小时前
查看轨道信息
半长轴: 6861.141km
偏心率: 0.0001417
轨道倾角: 43.001°
近地点辐角 264.966°
升交点赤经 36.504°
平近点角 95.103°
近地点: 482.031km
远地点: 483.977km
周期: 94.266分钟
每日圈数: 15.275951
详细信息
固有亮度:
5
最大亮度:
2.5
卫星平台:
Starlink V1.0
覆盖范围:
全球
运营商:
太空探索技术公司
运营商所在国:
美国
制造商(研发单位):
太空探索技术公司
制造商所在国:
美国
使用方式:
暂无
卫星简介
Starlink 计划是 SpaceX 推出的全球卫星互联网项目,通过发射低轨道卫星,为全球尤其是偏远地区提供高速、低延迟的互联网服务。自 2019 年起,Starlink 已部署数千颗卫星,旨在缩小全球数字鸿沟,推动互联网普及。该项目还为军事、航空等行业提供通信支持,带来广泛经济效益。
2D轨道图
3D轨道图
轨道高度分析图
轨道倾角分析图
轨道综合分析图
查看轨道综合分析图